Location: Maiden_LMO
(35.5760°N, 81.2120°W)
Time: 09:43:25
(UTC-04:00)

Daily predictions for brighter satellites

Satellite Brightness Start Highest point End
(mag) Time Altitude Azimuth Time Altitude Azimuth Time Altitude Azimuth
Meteor 1-24 Rocket 4.1 19:59:35 10° N 20:04:51 44° ENE 20:10:16 10° SSE
Cosmos 1707 2.7 20:01:54 10° N 20:05:49 82° E 20:09:40 10° S
Cosmos 405 3.7 20:03:12 10° SSW 20:06:41 59° W 20:10:10 10° N
Cosmos 1953 4.0 20:04:46 10° ESE 20:07:09 15° E 20:09:32 10° NE
Cosmos 2082 Rocket 4.0 20:06:16 10° NNE 20:09:07 14° NE 20:11:57 10° E
Cosmos 2123 Rocket 4.4 20:04:09 10° N 20:10:03 40° ENE 20:15:54 10° SSE
NOAA 12 4.2 20:06:14 10° SSE 20:11:34 86° WSW 20:16:54 10° NNW
ALOS 2.4 20:09:11 10° SSE 20:13:43 54° ENE 20:18:17 10° N
USA 215 3.9 20:13:02 10° ENE 20:18:47 32° SE 20:24:29 10° S
Meteor 2-5 Rocket 4.0 20:13:35 10° NNW 20:19:20 78° W 20:25:10 10° S
COSMOS 2406 3.7 20:17:12 10° NNW 20:22:53 66° WSW 20:28:30 10° S
Cosmos 1766 3.1 20:19:18 10° S 20:23:08 68° E 20:27:00 10° NNE
Spot 2 Rocket 3.9 20:19:11 10° SE 20:23:58 43° ENE 20:28:47 10° N
H-II Stage 2 2.6 20:30:02 10° SW 20:31:34 17° S 20:32:29 14° SE
Resurs 1-3 3.9 20:28:41 10° SE 20:32:50 44° ENE 20:37:01 10° N
ISS -2.1 20:32:23 10° S 20:34:28 16° SE 20:34:28 16° SE
BREEZE-M DEB (TANK) 3.3 20:36:59 10° WSW 20:39:31 56° NNW 20:45:13 10° NE
RESURS DK-1 2.3 20:37:30 10° NNW 20:41:38 75° ENE 20:45:41 10° SSE
Envisat 4.2 20:40:01 18° ESE 20:42:08 23° ENE 20:46:04 10° NNE
Cosmos 1674 4.1 20:44:46 10° NNE 20:47:22 20° ENE 20:47:22 20° ENE
Lacrosse 5 3.1 20:43:01 10° WSW 20:47:50 43° NW 20:52:40 10° NNE
Cosmos 1125 Rocket 3.5 20:44:10 10° S 20:49:13 57° ESE 20:54:20 10° NNE
Cosmos 2344 4.2 20:42:56 10° SW 20:50:29 60° NW 20:58:48 10° NNE
CZ-2D R/B 3.2 20:47:39 10° SSE 20:51:27 63° ENE 20:55:18 10° N
BREEZE-M DEB (TANK) 2.6 20:49:13 10° SW 20:52:00 58° SE 20:59:44 10° ENE
Timation 1 Rocket 4.3 20:49:15 10° SSW 20:55:13 77° ESE 21:01:15 10° NNE
Cosmos 1805 3.1 20:52:50 10° S 20:56:42 89° ESE 21:00:38 10° N
SAR-Lupe-4 3.8 20:55:34 31° SE 20:56:49 45° ENE 21:00:15 10° N
Geosat 4.0 20:53:50 10° NNE 20:58:53 87° WNW 21:03:53 10° SSW
Okean 3 Rocket 3.5 20:56:43 10° N 21:01:08 86° E 21:05:33 10° S
Tiangong 1 0.7 20:59:49 10° WNW 21:02:45 85° SSW 21:03:03 69° SE
ERS-1 Rocket 4.4 21:03:25 20° ENE 21:03:25 20° ENE 21:06:45 10° NNE
Yuri Rocket 4.2 21:01:28 10° WSW 21:05:03 27° S 21:06:15 23° SSE
In-Cosmos 22 4.1 21:00:28 10° N 21:05:46 79° W 21:11:02 10° S
Abrixas 4.1 21:04:56 10° NNW 21:06:57 22° NNE 21:06:57 22° NNE
SeaSat 1 3.5 21:05:14 10° S 21:09:55 45° WSW 21:14:39 10° NW
Cosmos 1470 3.3 21:12:27 39° ENE 21:12:27 39° ENE 21:15:30 10° NNE
SL-27 R/B 4.3 21:10:12 10° NW 21:13:26 32° WSW 21:16:40 10° SSW
USA 186 3.4 21:15:09 18° NNW 21:15:09 18° NNW 21:15:53 10° NNW
SAR-Lupe-1 3.9 21:16:04 65° SE 21:16:27 74° ENE 21:20:02 10° N
Cosmos 1340 Rocket 4.3 21:15:03 10° NNE 21:17:07 23° NE 21:17:07 23° NE
H-2A R/B (2) 3.0 21:16:30 10° WSW 21:19:31 33° S 21:20:59 28° SSE
Cosmos 1833 Rocket 3.0 21:14:45 10° N 21:20:09 46° ENE 21:21:15 41° E
Meteor 1-29 2.8 21:16:48 10° NNE 21:20:17 88° E 21:21:00 54° S
Cosmos 2278 Rocket 3.8 21:15:33 10° SW 21:20:42 35° WNW 21:25:54 10° N
GP-B 3.0 21:19:19 23° S 21:22:02 83° E 21:26:29 10° N
Cosmos 1076 Rocket 3.4 21:19:10 10° N 21:23:25 83° W 21:25:13 34° S
Meteor 1-4 Rocket 3.5 21:20:06 10° SSW 21:23:27 45° W 21:26:48 10° N
Cosmos 1818 3.5 21:18:01 10° NNW 21:23:27 70° ENE 21:25:02 46° SE
COSMOS 2487 3.5 21:21:19 10° N 21:23:40 34° NNE 21:23:40 34° NNE
Cosmos 2016 Rocket 4.3 21:24:19 40° ESE 21:25:04 42° E 21:30:49 10° NNE
Cosmos 1733 4.2 21:27:32 34° NNE 21:27:32 34° NNE 21:29:54 10° NNE
Resurs 01 Rocket 3.2 21:22:19 10° SSW 21:26:20 35° W 21:30:23 10° NNW
SJ-11-01 4.3 21:26:01 55° E 21:26:29 58° ENE 21:31:07 10° N
Helios 1B rocket 2.9 21:24:18 10° N 21:28:23 60° WNW 21:32:25 10° SSW
CZ-3B DEB 4.5 21:19:39 10° W 21:28:33 29° NW 21:33:19 10° NNE
Delta 2 Rocket 4.1 21:27:28 10° W 21:31:48 41° SSW 21:32:00 40° SSW
Cosmos 1269 Rocket 3.9 21:27:28 10° NNW 21:32:46 78° ENE 21:33:59 54° SE
Cosmos 1766 Rocket 3.5 21:29:07 10° N 21:33:37 89° E 21:34:17 65° S
SWAS 4.4 21:30:18 10° SSW 21:34:34 80° WNW 21:38:54 10° NNE
Helios 1A 3.4 21:33:37 35° SSW 21:35:10 59° WSW 21:39:18 10° NNW
Cosmos 2297 4.2 21:29:37 10° SSW 21:35:14 60° WNW 21:40:55 10° NNE
ATLAS 5 CENTAUR R/B 1.7 21:31:43 10° SSW 21:36:19 86° WNW 21:41:11 11° NNE
Cosmos 2100 Rocket 3.9 21:33:15 10° S 21:39:33 88° E 21:45:57 10° N
GPS 2-05 Rocket1 4.2 21:36:54 10° WSW 21:39:10 36° WSW 21:39:10 36° WSW
Cosmos 1953 4.2 21:39:39 10° SW 21:43:17 30° WNW 21:46:54 10° NNW
Cosmos-2242 3.4 21:44:00 41° SW 21:45:17 61° W 21:49:31 10° N
Cosmos 1939 Rocket 3.5 21:46:51 52° NNW 21:46:51 52° NNW 21:50:02 10° NNW
Cosmos 2082 Rocket 2.2 21:48:11 10° NNW 21:53:52 80° WSW 21:54:34 68° S
Cosmos 1802 Rocket 3.9 21:56:20 30° SSW 21:59:33 82° W 22:05:44 10° N
Cosmos 1271 Rocket 4.1 22:00:43 38° WNW 22:00:43 38° WNW 22:04:01 10° N
USA 215 3.6 21:55:31 10° NE 22:01:56 61° NW 22:08:20 10° WSW
Cosmos 158 Rocket 4.3 21:59:35 10° NNW 22:04:40 63° WSW 22:04:41 63° WSW
Lacrosse 5 rocket 3.7 22:05:38 10° NNW 22:06:37 16° NNW 22:06:37 16° NNW
Cosmos 2061 Rocket 4.5 22:05:03 10° SSW 22:11:18 60° W 22:17:40 10° N
Timation 2 Rocket 4.2 22:13:57 10° NNW 22:20:07 63° WSW 22:20:08 63° WSW
H-2A R/B 4.3 22:24:05 16° NNE 22:24:05 16° NNE 22:25:17 10° N
Envisat 4.3 22:20:14 34° WSW 22:20:54 35° W 22:25:33 10° NNW
USA 267 4.2 22:32:47 35° NNE 22:32:47 35° NNE 22:38:00 10° NNW
